Date,TemperatureHighF,TemperatureAvgF,TemperatureLowF,DewpointHighF,DewpointAvgF,DewpointLowF,HumidityHigh,HumidityAvg,HumidityLow,PressureMaxIn,PressureMinIn,WindSpeedMaxMPH,WindSpeedAvgMPH,GustSpeedMaxMPH,PrecipitationSumIn
2013-3-1,57.6,50.5,46.3,52.0,47.7,44.0,96,90,77,30.46,30.27,5,1,9,0.00
2013-3-2,56.9,49.5,45.2,52.0,47.2,44.0,95,92,79,30.28,30.10,5,1,8,0.00
2013-3-3,58.9,50.9,44.4,51.0,47.4,43.0,95,88,73,30.11,30.04,8,2,10,0.00
2013-3-4,49.7,44.4,36.2,45.0,41.5,35.0,96,89,80,30.16,30.08,7,2,9,0.00
2013-3-5,53.1,45.6,36.2,49.0,42.9,35.0,97,90,74,30.09,29.76,17,5,26,0.79
2013-3-6,52.9,46.7,38.8,48.0,43.0,37.0,96,87,74,30.06,29.79,18,5,27,0.08
2013-3-7,52.8,44.5,36.9,46.0,41.4,36.0,96,89,67,30.01,29.90,9,2,15,0.00
2013-3-8,57.8,46.1,35.0,47.0,40.7,34.0,95,82,63,30.09,29.89,8,1,13,0.00
2013-3-9,66.4,49.0,39.0,51.0,43.1,37.0,93,81,52,30.35,30.09,9,2,10,0.00
2013-3-10,58.3,46.9,36.9,50.0,43.0,35.0,94,87,66,30.37,30.27,6,2,11,0.00
2013-3-11,58.6,47.9,40.6,52.0,44.8,39.0,95,89,74,30.29,30.13,5,1,7,0.00
2013-3-12,58.2,48.7,42.0,51.0,45.8,41.0,96,90,78,30.18,30.11,6,1,7,0.01
2013-3-13,60.0,48.8,41.3,53.0,46.2,40.0,97,91,77,30.21,30.10,7,1,10,0.00
2013-3-14,59.8,50.2,44.5,52.0,47.0,43.0,96,89,74,30.21,30.11,6,1,10,0.00
2013-3-15,62.2,52.3,45.7,54.0,47.8,43.0,94,85,70,30.18,30.07,7,1,9,0.00
2013-3-16,64.4,52.7,45.1,53.0,46.7,42.0,94,81,58,30.19,30.07,6,1,9,0.00
2013-3-17,61.4,50.4,42.1,49.0,43.6,39.0,95,79,53,30.20,30.09,7,1,9,0.00
2013-3-18,57.1,48.0,41.0,49.0,42.9,38.0,91,83,68,30.16,30.05,6,1,7,0.00
2013-3-19,55.5,48.8,43.7,50.0,42.9,35.0,94,81,52,30.16,30.07,8,2,18,0.14
2013-3-20,53.9,49.3,42.5,53.0,48.4,42.0,98,96,93,30.20,30.04,6,1,11,0.23
2013-3-21,60.5,47.5,38.0,45.0,41.3,37.0,97,81,56,30.19,30.08,6,0,9,0.02
2013-3-22,62.9,49.5,40.6,43.0,38.4,33.0,84,68,46,30.18,30.10,4,0,9,0.00
2013-3-23,60.4,48.7,38.5,47.0,40.5,35.0,89,74,57,30.17,30.07,7,2,10,0.00
2013-3-24,58.1,48.9,40.9,50.0,43.5,38.0,91,82,70,30.11,29.99,7,2,10,0.00
2013-3-25,54.9,45.5,37.8,47.0,42.1,36.0,96,88,70,30.04,29.97,12,2,12,0.11
2013-3-26,53.1,46.3,40.1,48.0,43.7,39.0,97,91,78,30.03,29.98,6,2,7,0.01
2013-3-27,54.8,49.2,45.5,53.0,48.0,44.0,97,96,92,30.03,29.95,8,1,12,0.02
2013-3-28,58.7,51.6,48.1,55.0,50.0,47.0,98,94,83,30.12,30.02,7,1,10,0.02
2013-3-29,58.7,52.6,46.8,54.0,50.2,46.0,98,92,80,30.12,30.03,7,1,9,0.00
2013-3-30,59.4,51.9,47.5,54.0,50.0,47.0,98,93,79,30.10,30.03,8,2,14,0.04
2013-3-31,59.2,53.9,51.2,55.0,52.3,50.0,97,94,84,30.08,30.02,7,1,13,0.05